Flag for U.S.A. Weather past 2 weeks in Kailua-Kona, Hawaii, U.S.A.

Now
71 °F

Passing clouds.


Feels Like: 75 °F
Forecast: 65 / 80 °F
Wind: 5 mph from East

Location: Keahole Airport


UV Index: 7 (High)

Visibility: 10 mi


Pressure: 30.04 "Hg

Humidity: 68%

Dew point: 60 °F

Location of Kailua-KonaLocation

Historic Weather in Kailua-Kona

°F

Kailua-Kona temperature yesterday

Maximum temperature yesterday: 83 °F (at 12:53 PM)
Minimum temperature yesterday: 72 °F (at 2:53 AM)
Average temperature yesterday: 77 °F

Past Weeks' High & Low Weather Summary

 TemperatureHumidityPressure
High89 °F (Apr 8, 2:53 PM)80% (Apr 3, 4:53 AM)30.11 "Hg (Apr 3, 4:53 AM)
Low70 °F (Apr 7, 4:53 AM)29% (Apr 8, 2:53 PM)29.91 "Hg (Apr 8, 2:53 PM)
Average78 °F60%30.02 "Hg
* Reported Apr 2 5:53 AM — Apr 17 5:53 AM, Kailua-Kona, Weather by CustomWeather, © 2014

Note: Actual official high and low records may vary slightly from our data, if they occured in-between our weather recording intervals... More about our weather records

Advertising

Historic Weather Conditions — Data for Previous 24 hours

 ConditionsComfort  
Time TempWeatherWind HumidityBarometerVisibility
5:53 AM
Apr 17
71 °FPassing clouds.5 mph68%30.04 "Hg10 mi
4:53 AM71 °FClear.3 mph68%30.02 "Hg10 mi
3:53 AM72 °FClear.3 mph66%30.02 "Hg10 mi
2:53 AM73 °FClear.6 mph64%30.03 "Hg10 mi
1:53 AM75 °FClear.6 mph60%30.03 "Hg10 mi
12:53 AM75 °FClear.8 mph64%30.05 "Hg10 mi
11:53 PM
Apr 16
75 °FClear.5 mph66%30.07 "Hg10 mi
10:53 PM77 °FClear.No wind60%30.07 "Hg10 mi
9:53 PM77 °FClear.7 mph58%30.07 "Hg10 mi
8:53 PM78 °FClear.No wind66%30.06 "Hg10 mi
7:53 PM79 °FPassing clouds.No wind58%30.03 "Hg10 mi
6:53 PM78 °FPartly cloudy.5 mph64%30.01 "Hg10 mi
5:53 PM78 °FOvercast.3 mph66%30.00 "Hg10 mi
4:53 PM80 °FOvercast.9 mph64%29.98 "Hg10 mi
3:53 PM81 °FOvercast.10 mph60%29.97 "Hg10 mi
2:53 PM82 °FPartly sunny.13 mph58%29.98 "Hg10 mi
1:53 PM82 °FMostly cloudy.12 mph58%30.01 "Hg10 mi
12:53 PM83 °FSunny.13 mph57%30.02 "Hg10 mi
11:53 AM79 °FPartly sunny.6 mph60%30.04 "Hg10 mi
10:53 AM79 °FPartly sunny.5 mph65%30.05 "Hg10 mi
9:53 AM77 °FOvercast.6 mph66%30.05 "Hg10 mi
8:53 AM78 °FMostly cloudy.5 mph64%30.06 "Hg10 mi
7:53 AM78 °FPartly sunny.6 mph62%30.05 "Hg10 mi
Weather by CustomWeather, © 2014

See weather overview